Flag for French Polynesia

Past Weather in 17°32'15.0"S, 149°34'09.1"W, French Polynesia — Yesterday and Last 2 Weeks

Currently: 75 °F. Partly sunny. (Weather station: Tahiti-Faaa, French Polynesia). See more current weather

Past Weather in 17°32'15.0"S, 149°34'09.1"W — Graph

°F

17°32'15.0"S, 149°34'09.1"W Temperature Yesterday

Maximum temperature yesterday: 81 °F (at 10:00 am)
Minimum temperature yesterday: 73 °F (at 1:00 am)
Average temperature yesterday: 78 °F

High & Low Weather Summary for the Past Weeks

 TemperatureHumidityPressure
High90 °F (May 5, 2:00 pm)94% (May 10, 11:00 pm)30.04 "Hg (May 10, 11:00 pm)
Low73 °F (May 17, 12:30 am)43% (May 5, 2:00 pm)29.83 "Hg (May 4, 1:30 pm)
Average81 °F74%29.93 "Hg
* Reported May 4 6:00 am — May 19 6:00 am, 17°32'15.0"S, 149°34'09.1"W. Weather by CustomWeather, © 2024

Note: Actual official high and low records may vary slightly from our data, if they occured in-between our weather recording intervals... More about our weather records

17°32'15.0"S, 149°34'09.1"W Weather History for the Previous 24 Hours

Scroll right to see more
 ConditionsComfort  
Time TempWeatherWind HumidityBarometerVisibility
6:00 am
Sun, May 19
75 °FPassing clouds.3 mph83%29.95 "HgN/A
5:30 am75 °FPartly cloudy.2 mph83%29.95 "HgN/A
5:00 am75 °FPassing clouds.5 mph83%29.95 "HgN/A
4:00 am75 °FPassing clouds.2 mph83%29.92 "HgN/A
3:00 am77 °FPartly cloudy.3 mph74%29.92 "HgN/A
2:30 am77 °FPassing clouds.No wind74%29.92 "HgN/A
2:00 am77 °FPassing clouds.3 mph74%29.95 "HgN/A
1:30 am79 °FPassing clouds.3 mph70%29.95 "HgN/A
1:00 am79 °FPassing clouds.5 mph70%29.95 "HgN/A
12:30 am79 °FOvercast.5 mph70%29.95 "HgN/A
12:00 am79 °FOvercast.6 mph70%29.95 "HgN/A
11:30 pm
Sat, May 18
77 °FPassing clouds.6 mph74%29.95 "HgN/A
11:00 pm77 °FPassing clouds.5 mph74%29.95 "HgN/A
10:30 pm79 °FClear.9 mph70%29.95 "Hg10 mi
10:00 pm79 °FOvercast.9 mph70%29.95 "HgN/A
9:30 pm79 °FOvercast.8 mph70%29.95 "HgN/A
9:00 pm79 °FPassing clouds.6 mph70%29.95 "HgN/A
8:30 pm79 °FPassing clouds.7 mph74%29.95 "HgN/A
8:00 pm77 °FOvercast.7 mph74%29.92 "HgN/A
7:30 pm77 °FPassing clouds.5 mph74%29.92 "HgN/A
7:00 pm79 °FPartly cloudy.5 mph74%29.92 "HgN/A
6:30 pm79 °FPassing clouds.6 mph74%29.89 "HgN/A
6:00 pm77 °FPartly cloudy.3 mph74%29.89 "HgN/A
5:30 pm79 °FPartly sunny.6 mph70%29.89 "HgN/A
5:00 pm79 °FPartly sunny.5 mph70%29.89 "HgN/A
4:30 pm79 °FBroken clouds.9 mph74%29.89 "HgN/A
4:00 pm79 °FSunny.5 mph70%29.89 "Hg10 mi
3:30 pm81 °FSunny.2 mph62%29.89 "Hg10 mi
3:00 pm81 °FPassing clouds.3 mph66%29.89 "HgN/A
2:30 pm81 °FSunny.2 mph62%29.89 "Hg10 mi
2:00 pm81 °FSunny.5 mph66%29.89 "Hg10 mi
1:30 pm81 °FSunny.8 mph66%29.89 "Hg10 mi
1:00 pm81 °FSunny.3 mph66%29.92 "Hg10 mi
12:30 pm81 °FPassing clouds.3 mph66%29.92 "HgN/A
12:00 pm81 °FPassing clouds.9 mph66%29.95 "HgN/A
11:30 am81 °FPartly sunny.5 mph66%29.98 "HgN/A
11:00 am81 °FOvercast.3 mph62%29.98 "HgN/A
10:30 am81 °FOvercast.3 mph66%29.98 "HgN/A
10:00 am81 °FOvercast.5 mph66%30.01 "HgN/A
9:30 am79 °FOvercast.7 mph70%30.01 "HgN/A
9:00 am79 °FPartly sunny.3 mph70%30.01 "HgN/A
8:30 am79 °FBroken clouds.3 mph65%29.98 "HgN/A
8:00 am77 °FOvercast.5 mph74%29.98 "HgN/A
7:00 am75 °FSunny.6 mph74%29.95 "Hg10 mi
Weather by CustomWeather, © 2024

See weather overview